Retour au catalogue

STARLINK-4037

ActifCommunicationsVLEO
NORAD 52663·PAYLOAD·🇺🇸 United States

Lancé May 18, 2022 depuis Cape Canaveral Space Force Station

Loading…

Prochains Passages (prochaines 24 heures)

TLE

FraisSource: CelesTrak SupGP

Époque: Sep 15, 2026, 01:23 UTC

1 52663C 22053H   26258.05812500  .00377840  00000+0  10845-1 0  2583
2 52663  53.1599  21.3014 0001264  90.6031 290.4103 15.35109520    10

Suivez STARLINK-4037 en temps réel avec AllMySat

Download on the App Store